FW2828 Weather Reports


time (UTC)temp
F
wind
direction
speed
knots
gust
knots
rain 1hr
in
rain 24hr
in
rain mn
in
humidity
%
barometer
mb
20260503213030 81 349 4.3 13.0 0.00 0.00 0.00 29 1012.5
20260503211529 82 355 3.5 9.6 0.00 0.00 0.00 29 1012.7
20260503210031 83 42 2.6 7.8 0.00 0.00 0.00 27 1013.0
20260503204531 86 52 2.6 7.8 0.00 0.00 0.00 26 1013.1
20260503203032 87 29 2.6 7.8 0.00 0.00 0.00 26 1013.3
20260503201530 86 75 3.5 9.6 0.00 0.00 0.00 26 1013.4
20260503200033 86 75 2.6 8.7 0.00 0.00 0.00 27 1013.6
20260503194529 85 40 2.6 8.7 0.00 0.00 0.00 27 1013.7
20260503193106 86 78 4.3 9.6 0.00 0.00 0.00 28 1013.9
20260503190036 84 19 2.6 7.8 0.00 0.00 0.00 32 1014.0
20260503184535 84 339 3.5 7.8 0.00 0.00 0.00 34 1014.2
20260503181528 83 323 2.6 7.0 0.00 0.00 0.00 39 1014.5
20260503180031 82 304 2.6 7.0 0.00 0.00 0.00 40 1014.6
20260503174530 82 310 2.6 6.1 0.00 0.00 0.00 39 1014.7
20260503173031 81 347 0.9 4.3 0.00 0.00 0.00 40 1014.8
20260503171529 82 330 0.9 4.3 0.00 0.00 0.00 39 1014.9
20260503140108 45 112 0.9 2.6 0.00 0.00 0.00 95 1015.3
20260503130106 44 127 1.7 4.3 0.00 0.00 0.00 95 1015.1
20260503081533 48 122 0.9 2.6 0.00 0.00 0.00 89 1015.3
20260503071531 49 142 1.7 2.6 0.00 0.00 0.00 84 1015.3
20260503054533 54 153 1.7 3.5 0.00 0.00 0.00 82 1015.1
20260503053036 54 128 1.7 2.6 0.00 0.00 0.00 81 1015.0
20260503050028 55 163 1.7 3.5 0.00 0.00 0.00 79 1014.9
20260503043031 57 150 0.9 2.6 0.00 0.00 0.00 77 1014.8
20260503041645 58 181 0.9 3.5 0.00 0.00 0.00 75 1014.7
20260503040039 59 129 0.0 3.5 0.00 0.00 0.00 73 1014.5
20260503034532 60 114 0.9 3.5 0.00 0.00 0.00 71 1014.2
20260503031536 63 108 1.7 3.5 0.00 0.00 0.00 70 1013.7
20260503030108 65 127 0.9 2.6 0.00 0.00 0.00 66 1013.4
20260503024533 67 141 0.9 2.6 0.00 0.00 0.00 63 1013.2
20260503023032 68 180 1.7 2.6 0.00 0.00 0.00 59 1013.1
20260503021528 70 174 0.9 2.6 0.00 0.00 0.00 57 1013.0
20260503020031 72 90 0.0 1.7 0.00 0.00 0.00 54 1013.0
20260503014606 73 90 0.0 0.9 0.00 0.00 0.00 49 1013.0
20260503013143 75 90 0.0 3.5 0.00 0.00 0.00 44 1013.0
20260503011532 77 74 0.0 2.6 0.00 0.00 0.00 38 1012.9
20260503010028 78 75 0.9 5.2 0.00 0.00 0.00 38 1013.0
20260503004530 77 81 0.0 2.6 0.00 0.00 0.00 38 1013.0
20260503003029 78 73 0.0 2.6 0.00 0.00 0.00 36 1013.0
20260503001531 78 59 0.9 5.2 0.00 0.00 0.00 35 1013.0
20260503000038 78 11 2.6 7.8 0.00 0.00 0.00 35 1013.0
20260502234607 78 27 1.7 6.1 0.00 0.00 0.00 35 1013.2
20260502233039 78 355 2.6 8.7 0.00 0.00 0.00 34 1013.3
20260502231530 79 357 1.7 7.0 0.00 0.00 0.00 34 1013.5
20260502230037 79 21 1.7 7.8 0.00 0.00 0.00 35 1013.6
20260502224530 79 69 2.6 13.0 0.00 0.00 0.00 35 1013.8
20260502223033 77 83 3.5 11.3 0.00 0.00 0.00 35 1013.8
20260502221530 77 50 2.6 8.7 0.00 0.00 0.00 41 1014.0
20260502214532 76 329 1.7 6.1 0.00 0.00 0.00 46 1014.4